TimeCDT,TemperatureF,Dew PointF,Humidity,Sea Level PressureIn,VisibilityMPH,Wind Direction,Wind SpeedMPH,Gust SpeedMPH,PrecipitationIn,Events,Conditions,WindDirDegrees,DateUTC
12:56 AM,72.0,72.0,100,30.12,4.0,Calm,Calm,-,N/A,,Clear,0,2013-06-25 05:56:00
1:56 AM,70.9,70.9,100,30.12,8.0,Calm,Calm,-,N/A,,Clear,0,2013-06-25 06:56:00
2:56 AM,70.0,70.0,100,30.11,7.0,SSE,4.6,-,N/A,,Clear,160,2013-06-25 07:56:00
3:56 AM,70.9,70.9,100,30.10,10.0,South,6.9,-,N/A,,Clear,170,2013-06-25 08:56:00
4:56 AM,70.9,70.9,100,30.12,10.0,Calm,Calm,-,N/A,,Clear,0,2013-06-25 09:56:00
5:56 AM,70.0,70.0,100,30.13,6.0,Calm,Calm,-,N/A,,Clear,0,2013-06-25 10:56:00
6:56 AM,72.9,72.9,100,30.14,8.0,South,4.6,-,N/A,,Scattered Clouds,170,2013-06-25 11:56:00
7:12 AM,73.4,73.4,100,30.13,7.0,Calm,Calm,-,N/A,,Mostly Cloudy,0,2013-06-25 12:12:00
7:32 AM,75.2,73.4,94,30.14,7.0,Calm,Calm,-,N/A,,Scattered Clouds,0,2013-06-25 12:32:00
7:56 AM,77.0,73.9,90,30.16,8.0,SW,3.5,-,N/A,,Scattered Clouds,230,2013-06-25 12:56:00
8:04 AM,77.0,73.4,89,30.14,8.0,Variable,4.6,-,N/A,,Mostly Cloudy,0,2013-06-25 13:04:00
8:56 AM,79.9,73.9,82,30.16,10.0,SW,3.5,-,N/A,,Scattered Clouds,220,2013-06-25 13:56:00
9:56 AM,81.9,73.9,77,30.15,10.0,Variable,5.8,-,N/A,,Partly Cloudy,0,2013-06-25 14:56:00
10:56 AM,83.8,73.9,72,30.14,10.0,Variable,6.9,-,N/A,,Scattered Clouds,0,2013-06-25 15:56:00
11:56 AM,86.9,72.9,63,30.13,10.0,SSW,6.9,-,N/A,,Scattered Clouds,200,2013-06-25 16:56:00
12:56 PM,86.9,72.9,63,30.12,10.0,SW,9.2,-,N/A,,Scattered Clouds,230,2013-06-25 17:56:00
1:56 PM,90.0,72.9,57,30.10,10.0,Variable,5.8,-,N/A,,Scattered Clouds,0,2013-06-25 18:56:00
2:56 PM,90.0,72.0,55,30.07,10.0,WSW,8.1,-,N/A,,Scattered Clouds,250,2013-06-25 19:56:00
3:56 PM,90.9,70.9,52,30.06,10.0,West,10.4,-,N/A,,Partly Cloudy,270,2013-06-25 20:56:00
4:56 PM,90.9,72.0,54,30.03,10.0,WSW,5.8,-,N/A,,Partly Cloudy,250,2013-06-25 21:56:00
5:56 PM,90.0,70.0,52,30.01,10.0,WSW,8.1,-,N/A,,Partly Cloudy,240,2013-06-25 22:56:00
6:56 PM,86.9,70.9,59,30.01,10.0,WSW,5.8,-,N/A,,Partly Cloudy,240,2013-06-25 23:56:00
7:56 PM,84.9,70.9,63,30.01,10.0,Calm,Calm,-,N/A,,Clear,0,2013-06-26 00:56:00
8:56 PM,82.9,72.0,69,30.00,10.0,South,4.6,-,N/A,,Clear,190,2013-06-26 01:56:00
9:56 PM,81.0,72.0,74,30.03,10.0,SSW,3.5,-,N/A,,Clear,210,2013-06-26 02:56:00
10:56 PM,79.9,72.0,77,30.03,10.0,Calm,Calm,-,N/A,,Clear,0,2013-06-26 03:56:00
11:56 PM,77.9,72.0,82,30.03,10.0,South,5.8,-,N/A,,Clear,180,2013-06-26 04:56:00